EW5500 Weather Reports


time (UTC)temp
C
wind
direction
speed
KPH
gust
KPH
rain 1hr
cm
rain 24hr
cm
rain mn
cm
humidity
%
barometer
mb
20260502233023 20 292 3.2 9.7 0.00 0.00 0.00 31 1012.0
20260502231524 18 278 0.0 8.0 0.00 0.00 0.00 33 1012.2
20260502230019 18 253 3.2 17.7 0.00 0.00 0.00 32 1012.3
20260502224518 19 243 1.6 11.3 0.00 0.00 0.00 35 1012.5
20260502223017 18 228 3.2 14.5 0.00 0.00 0.00 35 1012.7
20260502221518 18 278 1.6 14.5 0.00 0.00 0.00 36 1012.9
20260502220013 17 277 3.2 9.7 0.00 0.00 0.00 37 1013.3
20260502214523 17 250 3.2 6.4 0.00 0.00 0.00 37 1013.5
20260502213011 16 244 1.6 8.0 0.00 0.00 0.00 40 1013.8
20260502211516 16 265 6.4 11.3 0.00 0.00 0.00 43 1014.0
20260502210021 16 255 6.4 14.5 0.00 0.00 0.00 43 1014.2
20260502204511 16 298 3.2 14.5 0.00 0.00 0.00 39 1014.3
20260502203012 16 321 3.2 8.0 0.00 0.00 0.00 37 1014.5
20260502201508 16 304 3.2 9.7 0.00 0.00 0.00 37 1014.7
20260502200005 16 311 4.8 12.9 0.00 0.00 0.00 37 1014.9
20260502194503 16 283 4.8 11.3 0.00 0.00 0.00 38 1015.0
20260502193003 16 270 4.8 12.9 0.00 0.00 0.00 39 1015.1
20260502191506 16 293 6.4 16.1 0.00 0.00 0.00 38 1015.2
20260502184503 16 338 3.2 11.3 0.00 0.00 0.00 40 1015.2
20260502183100 17 290 6.4 14.5 0.00 0.00 0.00 39 1015.3
20260502181558 16 277 4.8 11.3 0.00 0.00 0.00 43 1015.4
20260502180107 16 335 3.2 12.9 0.00 0.00 0.00 46 1015.5
20260502163048 15 261 1.6 9.7 0.00 0.00 0.00 53 1015.6
20260502161547 14 269 3.2 12.9 0.00 0.00 0.00 54 1015.6
20260502151540 13 269 3.2 9.7 0.00 0.00 0.00 55 1015.4
20260502123021 8 298 3.2 9.7 0.00 0.00 0.00 78 1015.1
20260502121534 7 285 1.6 6.4 0.00 0.00 0.00 72 1014.9
20260502114515 6 259 3.2 8.0 0.00 0.00 0.00 71 1014.8
20260502113010 7 287 0.0 3.2 0.00 0.00 0.00 67 1014.6
20260502111507 7 359 0.0 3.2 0.00 0.00 0.00 65 1014.5
20260502110005 8 275 0.0 3.2 0.00 0.00 0.00 65 1014.5
20260502104502 8 300 0.0 3.2 0.00 0.00 0.00 65 1014.5
20260502103110 8 342 0.0 1.6 0.00 0.00 0.00 64 1014.2
20260502101611 8 342 0.0 1.6 0.00 0.00 0.00 64 1014.1
20260502070036 10 351 3.2 6.4 0.00 0.00 0.00 54 1012.9
20260502064535 10 88 1.6 6.4 0.00 0.00 0.00 53 1012.5
20260502063031 11 75 1.6 8.0 0.00 0.00 0.00 51 1012.3
20260502061525 11 70 4.8 11.3 0.00 0.00 0.00 49 1012.2
20260502060023 11 106 4.8 9.7 0.00 0.00 0.00 47 1012.0
20260502054531 12 91 4.8 9.7 0.00 0.00 0.00 47 1011.8
20260502053021 12 115 1.6 9.7 0.00 0.00 0.00 45 1011.5
20260502051520 11 20 0.0 3.2 0.00 0.00 0.00 48 1011.1
20260502050022 11 347 1.6 3.2 0.00 0.00 0.00 48 1010.6
20260502044518 11 241 0.0 0.0 0.00 0.00 0.00 47 1010.3
20260502043018 11 240 0.0 0.0 0.00 0.00 0.00 46 1010.2
20260502041518 11 240 0.0 1.6 0.00 0.00 0.00 46 1010.1
20260502040017 12 222 0.0 1.6 0.00 0.00 0.00 43 1010.0
20260502034517 12 247 0.0 1.6 0.00 0.00 0.00 42 1009.9
20260502033016 13 247 0.0 3.2 0.00 0.00 0.00 41 1009.9
20260502031518 16 56 0.0 1.6 0.00 0.00 0.00 33 1009.8
20260502030016 17 56 0.0 3.2 0.00 0.00 0.00 31 1009.6
20260502024515 18 56 0.0 3.2 0.00 0.00 0.00 29 1009.6
20260502023015 18 56 0.0 1.6 0.00 0.00 0.00 30 1009.5
20260502021516 20 56 0.0 3.2 0.00 0.00 0.00 27 1009.4
20260502020014 21 349 0.0 3.2 0.00 0.00 0.00 24 1009.4
20260502014524 22 349 0.0 6.4 0.00 0.00 0.00 23 1009.4
20260502013012 22 354 3.2 9.7 0.00 0.00 0.00 20 1009.6
20260502011511 22 357 4.8 9.7 0.00 0.00 0.00 20 1009.7
20260502010012 22 338 4.8 12.9 0.00 0.00 0.00 20 1009.8
20260502004515 22 328 1.6 9.7 0.00 0.00 0.00 19 1009.8
20260502003007 22 348 3.2 12.9 0.00 0.00 0.00 18 1009.9
20260502001505 22 1 3.2 11.3 0.00 0.00 0.00 21 1010.0
20260502000004 22 342 8.0 19.3 0.00 0.00 0.00 20 1010.1
20260501234504 22 218 0.0 11.3 0.00 0.00 0.00 19 1010.1